Date String (YYYY-MM-DD hh:mm:ss) UTC,Instrument flags,absolute air pressure of the measurement (hPa),sample flow rate (lpm),inlet stack bypass flow (lpm),air temperature of the measurement (°C),ambient temperature measured by the external sensor (°C),aerosol sample conditioner tube jacket temperature (°C),OPC LED temperature (°C),internal box temperature (°C),relative humidity of the measurement (%),span deviation,mass concentration of particles derived from Lorenz-Mie calculation of OPC scattering (μg/m³),mass concentration of particles derived from Lorenz-Mie calculation of OPC scattering (μg/m³),mass concentration of particles derived from Lorenz-Mie calculation of OPC scattering (μg/m³)
DateTimeUTC,F1_M11,P_M11,Q1_M11,Q2_M11,T1_M11,T2_M11,T3_M11,T4_M11,T5_M11,U1_M11,ZSPAN_M11,X0_M11,X2_M11,X1_M11
2024-02-10 23:00:00,SystemResetWarning,0825.8,5.01,000.00,018.4,017.9,000.0,026.9,020.0,20.9,0000.0,0007.63,0004.36,0004.24
2024-02-10 23:01:00,SystemResetWarning,0825.8,5.01,000.00,018.4,017.9,000.0,026.9,020.0,20.9,0000.0,0007.74,0004.38,0004.26
2024-02-10 23:02:00,SystemResetWarning,0825.9,5.00,000.00,018.4,017.9,000.0,026.9,020.0,20.9,0000.0,0007.72,0004.39,0004.29
2024-02-10 23:03:00,SystemResetWarning,0825.9,5.00,000.00,018.4,017.8,000.0,026.9,020.0,21.0,0000.0,0007.49,0004.40,0004.31
2024-02-10 23:04:00,SystemResetWarning,0825.9,5.00,000.00,018.3,017.8,000.0,026.9,020.0,20.9,0000.0,0006.33,0004.41,0004.33
2024-02-10 23:05:00,SystemResetWarning,0825.9,4.99,000.00,018.3,017.8,000.0,026.9,020.0,20.9,0000.0,0006.37,0004.44,0004.35
2024-02-10 23:06:00,SystemResetWarning,0825.9,5.00,000.00,018.4,018.2,000.0,027.0,020.3,20.9,0000.0,0006.56,0004.48,0004.37
2024-02-10 23:07:00,SystemResetWarning,0825.9,5.02,000.00,018.6,018.9,000.0,027.1,020.8,20.7,0000.0,0006.64,0004.51,0004.39
2024-02-10 23:08:00,SystemResetWarning,0825.9,4.98,000.00,018.8,019.1,000.0,027.1,020.8,20.5,0000.0,0006.71,0004.53,0004.41
2024-02-10 23:09:00,SystemResetWarning,0825.9,5.01,000.00,018.8,019.0,000.0,027.1,020.7,20.4,0000.0,0006.74,0004.56,0004.44
2024-02-10 23:10:00,SystemResetWarning,0825.9,5.00,000.00,018.8,018.8,000.0,027.0,020.6,20.5,0000.0,0006.72,0004.56,0004.46
2024-02-10 23:11:00,SystemResetWarning,0825.9,4.99,000.00,018.7,018.7,000.0,027.0,020.4,20.5,0000.0,0006.10,0004.57,0004.46
2024-02-10 23:12:00,SystemResetWarning,0825.9,4.98,000.00,018.7,018.5,000.0,027.0,020.4,20.5,0000.0,0005.63,0004.57,0004.46
2024-02-10 23:13:00,SystemResetWarning,0825.9,5.00,000.00,018.7,018.4,000.0,027.0,020.3,20.4,0000.0,0005.69,0004.57,0004.45
2024-02-10 23:14:00,SystemResetWarning,0825.9,5.01,000.00,018.7,018.3,000.0,027.0,020.3,20.4,0000.0,0006.88,0004.57,0004.45
2024-02-10 23:15:00,SystemResetWarning,0825.9,5.00,000.00,018.6,018.3,000.0,027.0,020.3,20.5,0000.0,0007.17,0004.58,0004.45
2024-02-10 23:16:00,SystemResetWarning,0825.9,4.99,000.00,018.6,018.2,000.0,027.0,020.2,20.5,0000.0,0007.09,0004.57,0004.44
2024-02-10 23:17:00,SystemResetWarning,0825.9,5.00,000.00,018.6,018.1,000.0,027.0,020.2,20.5,0000.0,0006.95,0004.55,0004.44
2024-02-10 23:18:00,SystemResetWarning,0825.9,5.01,000.00,018.5,018.1,000.0,027.0,020.1,20.5,0000.0,0006.98,0004.56,0004.45
2024-02-10 23:19:00,SystemResetWarning,0825.9,5.00,000.00,018.5,018.0,000.0,027.0,020.1,20.5,0000.0,0007.04,0004.57,0004.45
2024-02-10 23:20:00,SystemResetWarning,0825.9,5.00,000.00,018.5,018.0,000.0,027.0,020.1,20.6,0000.0,0007.12,0004.57,0004.44
2024-02-10 23:21:00,SystemResetWarning,0825.9,4.99,000.00,018.5,017.9,000.0,027.0,020.1,20.6,0000.0,0007.83,0004.57,0004.44
2024-02-10 23:22:00,SystemResetWarning,0825.9,4.99,000.00,018.4,017.9,000.0,026.9,020.0,20.7,0000.0,0007.89,0004.60,0004.45
2024-02-10 23:23:00,SystemResetWarning,0825.9,4.99,000.00,018.4,017.9,000.0,026.9,020.0,20.7,0000.0,0007.94,0004.63,0004.47
2024-02-10 23:24:00,SystemResetWarning,0825.9,4.99,000.00,018.4,017.9,000.0,026.9,020.0,20.7,0000.0,0007.93,0004.65,0004.50
2024-02-10 23:25:00,SystemResetWarning,0825.9,5.02,000.00,018.4,017.8,000.0,026.9,020.0,20.7,0000.0,0007.21,0004.66,0004.53
2024-02-10 23:26:00,SystemResetWarning,0825.9,5.00,000.00,018.4,017.8,000.0,026.9,020.0,20.7,0000.0,0006.98,0004.66,0004.54
2024-02-10 23:27:00,SystemResetWarning,0825.9,4.99,000.00,018.3,017.8,000.0,026.9,020.0,20.7,0000.0,0007.00,0004.67,0004.56
2024-02-10 23:28:00,SystemResetWarning,0826.0,5.00,000.00,018.3,017.8,000.0,026.9,020.0,20.7,0000.0,0006.99,0004.69,0004.58
2024-02-10 23:29:00,SystemResetWarning,0826.0,5.00,000.00,018.3,017.8,000.0,026.9,020.0,20.7,0000.0,0006.99,0004.71,0004.60
2024-02-10 23:30:00,SystemResetWarning,0826.0,5.00,000.00,018.3,017.8,000.0,026.9,020.0,20.7,0000.0,0006.96,0004.72,0004.61
2024-02-10 23:31:00,SystemResetWarning,0826.0,5.00,000.00,018.4,018.1,000.0,027.0,020.3,20.6,0000.0,0006.97,0004.73,0004.63
2024-02-10 23:32:00,SystemResetWarning,0826.1,5.00,000.00,018.6,018.8,000.0,027.1,020.8,20.3,0000.0,0005.93,0004.74,0004.65
2024-02-10 23:33:00,SystemResetWarning,0826.1,4.99,000.00,018.7,019.0,000.0,027.1,020.8,20.1,0000.0,0005.74,0004.74,0004.66
2024-02-10 23:34:00,SystemResetWarning,0826.1,4.99,000.00,018.7,018.9,000.0,027.0,020.6,20.1,0000.0,0005.59,0004.72,0004.66
2024-02-10 23:35:00,SystemResetWarning,0826.1,5.01,000.00,018.7,018.7,000.0,027.0,020.5,20.1,0000.0,0005.56,0004.71,0004.66
2024-02-10 23:36:00,SystemResetWarning,0826.1,5.00,000.00,018.7,018.6,000.0,027.0,020.4,20.2,0000.0,0005.66,0004.71,0004.64
2024-02-10 23:37:00,SystemResetWarning,0826.1,5.00,000.00,018.7,018.5,000.0,027.0,020.4,20.2,0000.0,0005.79,0004.72,0004.64
2024-02-10 23:38:00,SystemResetWarning,0826.1,5.00,000.00,018.6,018.4,000.0,027.0,020.3,20.2,0000.0,0005.78,0004.70,0004.62
2024-02-10 23:39:00,SystemResetWarning,0826.2,5.00,000.00,018.6,018.3,000.0,027.0,020.3,20.2,0000.0,0005.84,0004.69,0004.60
2024-02-10 23:40:00,SystemResetWarning,0826.2,5.00,000.00,018.6,018.2,000.0,027.0,020.2,20.3,0000.0,0005.83,0004.67,0004.58
2024-02-10 23:41:00,SystemResetWarning,0826.2,5.00,000.00,018.5,018.1,000.0,027.0,020.2,20.2,0000.0,0005.77,0004.64,0004.55
2024-02-10 23:42:00,SystemResetWarning,0826.2,5.00,000.00,018.5,018.1,000.0,027.0,020.2,20.2,0000.0,0005.68,0004.60,0004.52
2024-02-10 23:43:00,SystemResetWarning,0826.2,5.00,000.00,018.5,018.0,000.0,027.0,020.1,20.2,0000.0,0005.62,0004.57,0004.48
2024-02-10 23:44:00,SystemResetWarning,0826.3,5.00,000.00,018.5,018.0,000.0,026.9,020.0,20.2,0000.0,0005.57,0004.54,0004.45
2024-02-10 23:45:00,SystemResetWarning,0826.3,5.00,000.00,018.4,017.9,000.0,026.9,020.0,20.2,0000.0,0005.53,0004.51,0004.42
2024-02-10 23:46:00,SystemResetWarning,0826.3,5.00,000.00,018.4,017.9,000.0,027.0,020.0,20.2,0000.0,0005.55,0004.48,0004.38
2024-02-10 23:47:00,SystemResetWarning,0826.3,5.00,000.00,018.4,017.9,000.0,026.9,020.0,20.2,0000.0,0005.38,0004.43,0004.34
2024-02-10 23:48:00,SystemResetWarning,0826.4,5.00,000.00,018.4,017.8,000.0,027.0,020.0,20.1,0000.0,0005.20,0004.38,0004.30
2024-02-10 23:49:00,SystemResetWarning,0826.4,5.00,000.00,018.4,017.8,000.0,027.0,020.0,20.2,0000.0,0005.13,0004.35,0004.28
2024-02-10 23:50:00,SystemResetWarning,0826.4,5.00,000.00,018.3,017.8,000.0,026.9,020.0,20.2,0000.0,0005.02,0004.31,0004.26
2024-02-10 23:51:00,SystemResetWarning,0826.4,5.00,000.00,018.3,017.8,000.0,026.9,020.0,20.1,0000.0,0004.93,0004.29,0004.24
2024-02-10 23:52:00,SystemResetWarning,0826.4,5.00,000.00,018.3,017.7,000.0,026.9,020.0,20.0,0000.0,0004.96,0004.29,0004.24
2024-02-10 23:53:00,SystemResetWarning,0826.4,5.01,000.00,018.3,017.7,000.0,026.9,020.0,20.0,0000.0,0005.02,0004.30,0004.24
2024-02-10 23:54:00,SystemResetWarning,0826.4,5.00,000.00,018.3,017.7,000.0,026.9,020.0,20.0,0000.0,0005.02,0004.30,0004.24
2024-02-10 23:55:00,SystemResetWarning,0826.4,5.00,000.00,018.4,018.0,000.0,027.0,020.2,20.0,0000.0,0006.64,0004.31,0004.25
2024-02-10 23:56:00,SystemResetWarning,0826.6,5.00,000.00,018.6,018.8,000.0,027.1,020.7,19.9,0000.0,0006.66,0004.32,0004.25
2024-02-10 23:57:00,SystemResetWarning,0826.6,5.00,000.00,018.7,019.0,000.0,027.1,020.8,19.6,0000.0,0006.62,0004.32,0004.26
2024-02-10 23:58:00,SystemResetWarning,0826.6,4.99,000.00,018.7,018.9,000.0,027.0,020.6,19.6,0000.0,0006.69,0004.35,0004.26
2024-02-10 23:59:00,SystemResetWarning,0826.5,5.00,000.00,018.7,018.7,000.0,027.0,020.5,19.6,0000.0,0006.72,0004.36,0004.27
